STARLINK-36826

Last updated on Tue Mar 24 2026 00:02:05 GMT+0000 (Coordinated Universal Time)

1 67885U 26035G 26082.53305226 .00184430 00000+0 12114-2 0 9994 2 67885 97.2864 15.6270 0003125 75.4325 284.7286 15.75175358 6022
UTC large
Height (km)
Speed (km/s)
/
Latitude / Longitude
Inclination (degrees)
Orbital Period (minutes)
Azimuth
Elevation
Range (km)
Doppler Factor

Next 0 passes for location: London (51.5072 / 0.1276)

Sorry there are no passes over London.